Location: Limerick
(52.6800°N, 8.6400°W)
Time: 15:41:12
(UTC+01:00)

Amateur Radio Satellites - All Passes

Search period start: 24 October 2014 15:11
Search period end: 25 October 2014 15:11
Location: Limerick, 52.6800°N, 8.6400°W

Satellite Date Start Highest point End Downlink Frequencies (MHz)
Time Altitude Azimuth
JAS-1B 24 Oct 15:29:48 15:34:49 29° 267° (W) 15:39:45 435.800 - 435.900 CW/SSB
AO-Echo 24 Oct 15:31:47 15:36:14 33° 266° (W) 15:40:51 ?
Oscar 16 24 Oct 15:32:35 15:36:19 20° 271° (W) 15:40:04 437.025 USB, Beacon 2401.1428
Saudisat 1A 24 Oct 15:33:30 15:37:41 39° 34° (NNE) 15:41:51 436.775 MHz
Uosat F 24 Oct 15:37:50 15:41:52 25° 57° (ENE) 15:45:55 435.120 FM
UOSAT-12 24 Oct 15:44:50 15:49:01 34° 121° (ESE) 15:53:17 437.025 FM, 437.400 FM
Uribyol 2 24 Oct 15:49:55 15:54:25 29° 267° (W) 15:58:57 436.500 FM
ITAMSAT 1 24 Oct 15:55:54 16:00:19 27° 267° (W) 16:04:46 435.822 SSB
KITSAT 1 24 Oct 15:56:59 16:04:42 46° 331° (NNW) 16:12:27 435.175 FM
SO-50 24 Oct 15:57:48 16:02:12 44° 325° (NW) 16:06:44 436.795 FM
JAS-2 24 Oct 16:03:38 16:08:07 20° 45° (NE) 16:12:57 435.800 - 435.900 CW/SSB, 435.910 FM
Gurwin Techsat 1B 24 Oct 16:11:26 16:16:18 36° 264° (W) 16:21:12 435.225 FM
TMSAT-1 24 Oct 16:23:01 16:27:55 38° 264° (W) 16:32:52 436.925 FM
AO-7 24 Oct 16:36:43 16:45:01 88° 249° (WSW) 16:53:22 29.400 - 29.500 MHz
AO-27 24 Oct 16:44:31 16:46:30 12° 277° (W) 16:48:30 436.795 MHz FM
ISS 24 Oct 16:46:36 16:49:56 74° 175° (S) 16:53:17 145.800 FM
Saudisat 1A 24 Oct 17:13:06 17:17:23 48° 235° (SW) 17:21:37 436.775 MHz
Hamsat 24 Oct 17:14:06 17:17:21 22° 61° (ENE) 17:20:36 145.90 MHz
Uosat F 24 Oct 17:15:17 17:20:17 65° 257° (WSW) 17:25:20 435.120 FM
UOSAT-12 24 Oct 17:24:26 17:29:02 54° 321° (NW) 17:33:43 437.025 FM, 437.400 FM
SO-50 24 Oct 17:40:17 17:43:52 21° 349° (N) 17:47:31 436.795 FM
JAS-2 24 Oct 17:45:51 17:51:56 70° 69° (ENE) 17:58:55 435.800 - 435.900 CW/SSB, 435.910 FM
KITSAT 1 24 Oct 17:55:06 18:02:11 32° 359° (N) 18:09:16 435.175 FM
HO-68 24 Oct 18:09:23 18:11:27 11° 27° (NNE) 18:13:30 435.675 MHz FM
ISS 24 Oct 18:23:15 18:26:33 57° 195° (SSW) 18:29:50 145.800 FM
AO-7 24 Oct 18:32:29 18:38:58 25° 271° (W) 18:45:30 29.400 - 29.500 MHz
Hamsat 24 Oct 18:48:56 18:53:02 52° 260° (W) 18:57:09 145.90 MHz
OPAL 24 Oct 18:48:58 18:53:50 49° 103° (ESE) 18:58:38 ?
SO-67 24 Oct 18:50:33 18:53:25 25° 66° (ENE) 18:56:17 435.3500 MHz FM
Oscar 10/S400 24 Oct 18:52:40 19:14:06 41° 175° (S) 21:45:57 145.825 - 145.975 CW/USB, Beacon 145.810 USB
STRAND 1 24 Oct 18:55:54 18:57:23 11° 83° (E) 18:58:52 ?
Uosat F 24 Oct 18:58:55 19:00:06 11° 277° (W) 19:01:17 435.120 FM
UOSAT-12 24 Oct 19:06:23 19:10:09 23° 344° (NNW) 19:13:56 437.025 FM, 437.400 FM
SO-50 24 Oct 19:22:14 19:25:57 22° 14° (NNE) 19:29:43 436.795 FM
JAS-2 24 Oct 19:32:33 19:37:44 28° 273° (W) 19:43:30 435.800 - 435.900 CW/SSB, 435.910 FM
HO-68 24 Oct 19:50:55 19:57:02 32° 51° (NE) 20:03:11 435.675 MHz FM
KITSAT 1 24 Oct 19:52:03 19:59:44 44° 28° (NNE) 20:07:22 435.175 FM
ISS 24 Oct 20:00:18 20:02:48 20° 214° (SW) 20:05:18 145.800 FM
SO-67 24 Oct 20:23:15 20:26:19 30° 264° (W) 20:29:25 435.3500 MHz FM
UKube-1 24 Oct 20:23:16 20:25:01 12° 51° (NE) 20:26:46 145.840 MHz, 145.915 MHz
OPAL 24 Oct 20:28:12 20:32:33 31° 302° (WNW) 20:36:52 ?
STRAND 1 24 Oct 20:32:27 20:37:37 65° 103° (ESE) 20:42:44 ?
UOSAT-12 24 Oct 20:48:14 20:51:48 21° 9° (N) 20:55:22 437.025 FM, 437.400 FM
FUNcube-1 24 Oct 21:02:00 21:03:44 12° 52° (NE) 21:05:29 145.950 - 145.970 MHz USB
SO-50 24 Oct 21:02:53 21:07:33 48° 37° (NE) 21:12:16 436.795 FM
Oscar 11 24 Oct 21:03:17 21:06:33 21° 60° (ENE) 21:09:49 145.825 FM, Beacon 2401.500 USB
AO-40 24 Oct 21:24:03 23:18:13 16° 122° (ESE) 00:22:42 Beacon 2401.320
HO-68 24 Oct 21:37:02 21:44:13 77° 253° (WSW) 21:51:27 435.675 MHz FM
KITSAT 1 24 Oct 21:47:47 21:55:54 81° 233° (SW) 22:03:58 435.175 FM
ZACube-1 24 Oct 21:50:45 21:54:38 28° 63° (ENE) 21:58:28 437.345 MHz
UKube-1 24 Oct 21:56:05 22:00:25 67° 71° (ENE) 22:04:47 145.840 MHz, 145.915 MHz
STRAND 1 24 Oct 22:12:16 22:16:26 25° 303° (WNW) 22:20:36 ?
RS-15 24 Oct 22:28:29 22:37:55 36° 108° (ESE) 22:47:20 29.354 - 29.394 USB, Beacon 29.352 USB
UOSAT-12 24 Oct 22:28:39 22:33:08 39° 32° (NNE) 22:37:34 437.025 FM, 437.400 FM
FUNcube-1 24 Oct 22:34:48 22:39:19 64° 71° (ENE) 22:43:47 145.950 - 145.970 MHz USB
Oscar 11 24 Oct 22:38:07 22:42:24 59° 259° (W) 22:46:41 145.825 FM, Beacon 2401.500 USB
SO-50 24 Oct 22:43:35 22:48:07 41° 237° (WSW) 22:52:40 436.795 FM
ZACube-1 24 Oct 23:26:28 23:30:53 46° 261° (W) 23:35:14 437.345 MHz
HO-68 24 Oct 23:28:21 23:33:08 19° 275° (W) 23:37:58 435.675 MHz FM
UKube-1 24 Oct 23:34:07 23:37:04 18° 270° (W) 23:40:02 145.840 MHz, 145.915 MHz
KITSAT 1 24 Oct 23:44:09 23:50:11 24° 255° (WSW) 23:56:13 435.175 FM
UOSAT-12 25 Oct 00:08:51 00:13:29 53° 234° (SW) 00:18:02 437.025 FM, 437.400 FM
FUNcube-1 25 Oct 00:12:48 00:16:06 20° 270° (W) 00:19:23 145.950 - 145.970 MHz USB
RS-15 25 Oct 00:38:11 00:49:10 86° 314° (NW) 01:00:15 29.354 - 29.394 USB, Beacon 29.352 USB
MaSat-1 25 Oct 01:14:09 01:18:08 71° 121° (ESE) 01:21:41 437.345 MHz
Oscar 16 25 Oct 01:57:57 02:01:15 17° 87° (E) 02:04:31 437.025 USB, Beacon 2401.1428
Uribyol 2 25 Oct 02:18:25 02:20:12 12° 83° (E) 02:21:58 436.500 FM
ITAMSAT 1 25 Oct 02:24:06 02:26:15 12° 84° (E) 02:28:23 435.822 SSB
Gurwin Techsat 1B 25 Oct 02:44:09 02:44:59 10° 81° (E) 02:45:48 435.225 FM
Oscar 19 25 Oct 02:50:28 02:55:20 42° 98° (E) 03:00:11 437.125 CW, 437.150 USB
MaSat-1 25 Oct 02:51:18 02:54:05 19° 319° (NW) 02:56:39 437.345 MHz
RS-15 25 Oct 02:52:29 03:02:58 48° 345° (NNW) 03:13:40 29.354 - 29.394 USB, Beacon 29.352 USB
JAS-1B 25 Oct 03:04:00 03:10:14 51° 100° (E) 03:17:35 435.800 - 435.900 CW/SSB
AO-27 25 Oct 03:08:03 03:12:34 28° 93° (E) 03:17:02 436.795 MHz FM
AO-Echo 25 Oct 03:31:57 03:37:10 55° 100° (E) 03:42:23 ?
Oscar 16 25 Oct 03:36:08 03:41:19 86° 287° (WNW) 03:46:26 437.025 USB, Beacon 2401.1428
Sapphire 25 Oct 03:45:50 03:48:27 14° 103° (ESE) 03:51:05 437.095 MHz 1200 baud AX-25 AFSK
Uribyol 2 25 Oct 03:55:29 04:00:42 67° 103° (ESE) 04:05:53 436.500 FM
ITAMSAT 1 25 Oct 04:01:29 04:06:44 71° 104° (ESE) 04:11:56 435.822 SSB
PCSat 25 Oct 04:06:40 04:10:40 22° 109° (ESE) 04:14:42 145.825 MHz
Gurwin Techsat 1B 25 Oct 04:20:49 04:26:06 60° 101° (ESE) 04:31:21 435.225 FM
Oscar 19 25 Oct 04:30:00 04:34:39 36° 298° (WNW) 04:39:16 437.125 CW, 437.150 USB
OPAL 25 Oct 04:31:46 04:36:18 33° 58° (ENE) 04:40:47 ?
TMSAT-1 25 Oct 04:32:06 04:37:22 57° 101° (E) 04:42:35 436.925 FM
AO-7 25 Oct 04:32:18 04:38:26 22° 87° (E) 04:44:31 29.400 - 29.500 MHz
AO-27 25 Oct 04:47:16 04:52:23 54° 293° (WNW) 04:57:28 436.795 MHz FM
JAS-2 25 Oct 04:52:48 04:53:06 10° 73° (ENE) 04:53:24 435.800 - 435.900 CW/SSB, 435.910 FM
JAS-1B 25 Oct 04:55:04 05:00:53 41° 298° (WNW) 05:07:39 435.800 - 435.900 CW/SSB
RS-15 25 Oct 05:07:26 05:18:01 49° 18° (NNE) 05:28:56 29.354 - 29.394 USB, Beacon 29.352 USB
AO-Echo 25 Oct 05:11:07 05:15:42 31° 300° (WNW) 05:20:18 ?
Oscar 16 25 Oct 05:16:35 05:19:59 18° 307° (NW) 05:23:24 437.025 USB, Beacon 2401.1428
Uosat F 25 Oct 05:17:18 05:21:30 26° 93° (E) 05:25:41 435.120 FM
Sapphire 25 Oct 05:25:33 05:30:55 68° 124° (ESE) 05:36:20 437.095 MHz 1200 baud AX-25 AFSK
Uribyol 2 25 Oct 05:35:35 05:39:48 25° 303° (WNW) 05:43:58 436.500 FM
ITAMSAT 1 25 Oct 05:41:39 05:45:48 24° 304° (NW) 05:49:55 435.822 SSB
PCSat 25 Oct 05:48:03 05:53:29 84° 309° (NW) 05:58:58 145.825 MHz
Gurwin Techsat 1B 25 Oct 06:01:18 06:05:47 28° 302° (WNW) 06:10:14 435.225 FM
OPAL 25 Oct 06:10:05 06:15:03 49° 258° (WSW) 06:19:59 ?
TMSAT-1 25 Oct 06:12:30 06:17:01 29° 301° (WNW) 06:21:32 436.925 FM
STRAND 1 25 Oct 06:16:11 06:20:40 31° 60° (ENE) 06:25:10 ?
AO-7 25 Oct 06:24:11 06:32:33 80° 109° (ESE) 06:40:55 29.400 - 29.500 MHz
AO-27 25 Oct 06:28:38 06:30:51 13° 314° (NW) 06:33:03 436.795 MHz FM
Hamsat 25 Oct 06:29:07 06:32:07 19° 90° (E) 06:35:06 145.90 MHz
JAS-2 25 Oct 06:32:49 06:40:07 44° 95° (E) 06:47:33 435.800 - 435.900 CW/SSB, 435.910 FM
JAS-1B 25 Oct 06:48:20 06:50:07 11° 321° (NW) 06:51:58 435.800 - 435.900 CW/SSB
Uosat F 25 Oct 06:55:40 07:00:38 57° 292° (WNW) 07:05:34 435.120 FM
Sapphire 25 Oct 07:09:49 07:14:46 35° 326° (NW) 07:19:45 437.095 MHz 1200 baud AX-25 AFSK
RS-15 25 Oct 07:20:37 07:31:45 89° 47° (NE) 07:43:19 29.354 - 29.394 USB, Beacon 29.352 USB
PCSat 25 Oct 07:33:02 07:37:40 28° 332° (NNW) 07:42:20 145.825 MHz
SO-67 25 Oct 07:41:23 07:43:09 13° 89° (E) 07:44:54 435.3500 MHz FM
MaSat-1 25 Oct 07:45:35 07:45:47 10° 31° (NNE) 07:45:58 437.345 MHz
STRAND 1 25 Oct 07:54:41 07:59:41 50° 260° (W) 08:04:43 ?
Hamsat 25 Oct 08:04:18 08:08:26 58° 289° (WNW) 08:12:34 145.90 MHz
AO-7 25 Oct 08:17:30 08:24:44 35° 312° (NW) 08:31:59 29.400 - 29.500 MHz
JAS-2 25 Oct 08:17:54 08:25:18 57° 295° (WNW) 08:32:56 435.800 - 435.900 CW/SSB, 435.910 FM
Uosat F 25 Oct 08:36:17 08:38:27 13° 313° (NW) 08:40:36 435.120 FM
Sapphire 25 Oct 08:56:00 08:59:47 19° 351° (N) 09:03:35 437.095 MHz 1200 baud AX-25 AFSK
HO-68 25 Oct 08:59:43 09:03:48 16° 83° (E) 09:07:51 435.675 MHz FM
Saudisat 1A 25 Oct 09:03:35 09:07:54 59° 128° (SE) 09:12:15 436.775 MHz
SO-67 25 Oct 09:13:05 09:16:30 58° 287° (WNW) 09:19:53 435.3500 MHz FM
PCSat 25 Oct 09:19:14 09:22:53 18° 358° (N) 09:26:33 145.825 MHz
MaSat-1 25 Oct 09:19:16 09:22:05 71° 54° (NE) 09:24:38 437.345 MHz
RS-15 25 Oct 09:33:30 09:42:58 34° 253° (WSW) 09:52:48 29.354 - 29.394 USB, Beacon 29.352 USB
JAS-2 25 Oct 10:04:02 10:08:56 19° 316° (NW) 10:13:59 435.800 - 435.900 CW/SSB, 435.910 FM
AO-7 25 Oct 10:11:03 10:15:12 15° 337° (NNW) 10:19:21 29.400 - 29.500 MHz
Oscar 11 25 Oct 10:20:33 10:23:27 17° 89° (E) 10:26:20 145.825 FM, Beacon 2401.500 USB
Sapphire 25 Oct 10:41:04 10:45:11 21° 17° (NNE) 10:49:18 437.095 MHz 1200 baud AX-25 AFSK
Saudisat 1A 25 Oct 10:43:41 10:47:44 34° 329° (NNW) 10:51:48 436.775 MHz
HO-68 25 Oct 10:45:44 10:52:56 67° 104° (ESE) 11:00:05 435.675 MHz FM
PCSat 25 Oct 11:03:44 11:08:11 25° 24° (NNE) 11:12:37 145.825 MHz
ZACube-1 25 Oct 11:10:08 11:13:36 23° 92° (E) 11:17:00 437.345 MHz
UKube-1 25 Oct 11:14:25 11:18:43 53° 101° (E) 11:23:00 145.840 MHz, 145.915 MHz
Oscar 16 25 Oct 11:46:11 11:46:57 10° 44° (NE) 11:47:43 437.025 USB, Beacon 2401.1428
FUNcube-1 25 Oct 11:54:22 11:58:38 58° 101° (E) 12:02:47 145.950 - 145.970 MHz USB
Oscar 11 25 Oct 11:55:48 12:00:06 66° 288° (WNW) 12:04:21 145.825 FM, Beacon 2401.500 USB
AO-7 25 Oct 12:02:26 12:04:36 11° 5° (N) 12:06:45 29.400 - 29.500 MHz
JAS-1B 25 Oct 12:09:38 12:12:56 16° 46° (NE) 12:16:15 435.800 - 435.900 CW/SSB
KITSAT 1 25 Oct 12:23:23 12:30:08 31° 108° (ESE) 12:36:53 435.175 FM
Sapphire 25 Oct 12:24:35 12:29:53 49° 42° (NE) 12:35:09 437.095 MHz 1200 baud AX-25 AFSK
Saudisat 1A 25 Oct 12:25:23 12:28:29 18° 353° (N) 12:31:36 436.775 MHz
HO-68 25 Oct 12:33:54 12:40:18 36° 306° (NW) 12:46:41 435.675 MHz FM
Oscar 19 25 Oct 12:35:46 12:39:37 22° 55° (NE) 12:43:28 437.125 CW, 437.150 USB
ZACube-1 25 Oct 12:46:07 12:50:16 47° 292° (WNW) 12:54:18 437.345 MHz
PCSat 25 Oct 12:47:07 12:52:34 68° 47° (NE) 12:57:58 145.825 MHz
UKube-1 25 Oct 12:51:09 12:54:38 24° 300° (WNW) 12:58:07 145.840 MHz, 145.915 MHz
AO-27 25 Oct 12:55:14 12:58:26 17° 50° (NE) 13:01:38 436.795 MHz FM
SO-50 25 Oct 13:05:25 13:08:14 16° 112° (ESE) 13:11:06 436.795 FM
AO-Echo 25 Oct 13:13:38 13:17:33 24° 57° (ENE) 13:21:34 ?
Oscar 16 25 Oct 13:20:14 13:25:06 44° 65° (ENE) 13:29:59 437.025 USB, Beacon 2401.1428
FUNcube-1 25 Oct 13:31:27 13:34:40 21° 301° (WNW) 13:37:49 145.950 - 145.970 MHz USB
Oscar 11 25 Oct 13:33:59 13:35:29 12° 308° (NW) 13:36:59 145.825 FM, Beacon 2401.500 USB
Uribyol 2 25 Oct 13:40:48 13:45:26 33° 61° (ENE) 13:50:06 436.500 FM
ITAMSAT 1 25 Oct 13:46:51 13:51:33 35° 61° (ENE) 13:56:16 435.822 SSB
AO-7 25 Oct 13:48:48 13:54:16 20° 33° (NNE) 13:59:44 29.400 - 29.500 MHz
JAS-1B 25 Oct 13:56:54 14:02:40 70° 69° (ENE) 14:08:22 435.800 - 435.900 CW/SSB
Saudisat 1A 25 Oct 14:06:04 14:09:30 22° 17° (NNE) 14:12:57 436.775 MHz
Sapphire 25 Oct 14:08:12 14:13:17 41° 243° (WSW) 14:18:21 437.095 MHz 1200 baud AX-25 AFSK
Gurwin Techsat 1B 25 Oct 14:09:07 14:13:43 31° 60° (ENE) 14:18:21 435.225 FM
Oscar 19 25 Oct 14:13:18 14:18:28 78° 255° (WSW) 14:23:38 437.125 CW, 437.150 USB
KITSAT 1 25 Oct 14:16:39 14:24:46 85° 311° (NW) 14:32:55 435.175 FM
TMSAT-1 25 Oct 14:20:11 14:24:43 30° 59° (ENE) 14:29:16 436.925 FM
ISS 25 Oct 14:21:33 14:24:25 27° 150° (SSE) 14:27:17 145.800 FM
HO-68 25 Oct 14:23:14 14:26:03 13° 330° (NNW) 14:28:53 435.675 MHz FM
UOSAT-12 25 Oct 14:28:37 14:30:05 11° 108° (ESE) 14:31:33 437.025 FM, 437.400 FM
PCSat 25 Oct 14:31:04 14:35:36 28° 248° (WSW) 14:40:06 145.825 MHz
AO-27 25 Oct 14:31:56 14:37:09 74° 71° (ENE) 14:42:24 436.795 MHz FM
SO-50 25 Oct 14:43:32 14:48:06 86° 132° (SE) 14:52:50 436.795 FM
AO-Echo 25 Oct 14:50:56 14:55:52 69° 257° (WSW) 15:01:00 ?
Oscar 16 25 Oct 14:59:56 15:04:36 34° 265° (W) 15:09:17 437.025 USB, Beacon 2401.1428
Uosat F 25 Oct 15:00:39 15:03:14 14° 49° (NE) 15:05:49 435.120 FM
